Location: *
(12.5665°N, 8.3471°E)
Time: 14:04:54
(UTC+00:00)

SeaSat 1 - Pass Details

Date: 23 September 2019
Orbit: 744 x 747 km, 108.0° (Epoch: 15 October)

Event Time Altitude Azimuth Distance (km) Brightness Sun altitude
Rises 03:41:54 0° 360° (N) 3,180 5.8 -23.7°
Reaches altitude 10° 03:44:35 10° 346° (NNW) 2,256 4.8 -23.0°
Enters shadow 03:45:26 14° 338° (NNW) 2,008 4.5 -22.8°
